Weather Roundup
Issued by NWS Chicago, IL

Home | Current Version | Previous Version | Graphics & Text | Print | Product List | Glossary On
Versions: 1 2 3 4 5 6 7 8 9 10 11 12 13 14 15 16 17 18 19 20 21 22 23 24 25 26 27 28 29 30 31 32 33 34 35 36 37 38 39 40 41 42 43 44 45 46 47 48 49 50
773
NZUS59 KLOT 231202
HRRLOT

CHICAGO AREA WEATHER ROUNDUP
NATIONAL WEATHER SERVICE CHICAGO/ROMEOVILLE IL
700 AM CDT THU MAR 23 2017

NOTE: "FAIR" INDICATES FEW OR NO CLOUDS BELOW 12,000 FEET WITH NO
SIGNIFICANT WEATHER AND/OR OBSTRUCTIONS TO VISIBILITY.

* THESE STATIONS ARE NOT UNDER NWS QUALITY CONTROL. THEY ALSO MAY NOT
  REPORT WEATHER SUCH AS PRECIPITATION OR FOG.

ILZ005-006-012>014-019>023-231300-
NORTHEAST ILLINOIS

CITY           SKY/WX    TMP DP  RH WIND       PRES   REMARKS
OHARE          CLOUDY    33  19  56 SE13      30.41S WCI  24
6HR MIN TEMP:  29; 6HR MAX TEMP:  33;

MIDWAY         CLOUDY    33  19  56 SE9       30.43R WCI  25
6HR MIN TEMP:  32; 6HR MAX TEMP:  33;

AURORA         CLOUDY    33  21  61 SE13      30.39S WCI  24
6HR MIN TEMP:  31; 6HR MAX TEMP:  34;

LANSING*       CLOUDY    31  22  69 SE9       30.43S WCI  22
JOLIET*        CLOUDY    33  24  69 SE12G17   30.41F WCI  24
WAUKEGAN       CLOUDY    33  21  61 SE10      30.41S WCI  25
6HR MIN TEMP:  21; 6HR MAX TEMP:  33;

DUPAGE AIRPORT CLOUDY    33  21  61 SE8       30.39F WCI  26
6HR MIN TEMP:  28; 6HR MAX TEMP:  33;

WHEELING       CLOUDY    32  19  58 S12       30.43S WCI  23
6HR MIN TEMP:  25; 6HR MAX TEMP:  32;

KANKAKEE*      CLOUDY    30  22  73 E12G17    30.41F WCI  21
MORRIS*        CLOUDY    33  22  66 SE8       30.40R WCI  25
NORTHERLY ISL    N/A     32  21  64 SE8         N/A  WCI  25
$$

WIZ051-052-058>065-066-070>072-231300-
SOUTHEAST WISCONSIN

CITY           SKY/WX    TMP DP  RH WIND       PRES   REMARKS
MILWAUKEE      CLOUDY    34  23  64 S7        30.42S WCI  28
6HR MIN TEMP:  26; 6HR MAX TEMP:  34;

KENOSHA*       CLOUDY    33  23  66 SE10      30.41F WCI  25
RACINE*        CLOUDY    34  22  61 S10G21    30.43F WCI  26
WAUKESHA       CLOUDY    30  21  69 SE7       30.41R WCI  23
WEST BEND      CLOUDY    28  28 100 E3        30.40S
$$

INZ001>003-010>013-019-020-231300-
NORTHWEST INDIANA

CITY           SKY/WX    TMP DP  RH WIND       PRES   REMARKS
GARY*          MOCLDY    32  18  55 SE12      30.44R WCI  23
MICHIGAN CITY* NOT AVBL
RENSSELAER*    NOT AVBL
VALPARAISO     CLOUDY    29  20  69 SE10      30.44S WCI  20
$$

LMZ740>746-231300-
SOUTHERN LAKE MICHIGAN

STATION/POSITION TIME  SKY/WX   TEMP WIND        PRES    VSBY
                                AIR  DIR/SP/G
                 (UTC)          (F)  (DEG/KT/KT) (MB)    (MI)
HARRISON CRIB    1140            33  150/ 18/ 21   N/A
BURNHAM HARBOR   1200            32  140/ 12       N/A
CALUMET HARBOR   1130            31  150/  7/ 10 1030.0R
BURNS HARBOR     1140            30  140/ 11/ 17 1030.5F
MICHIGAN CITY    1140            29  120/ 11/ 15   N/A
$$

ABBREVIATIONS USED IN REMARKS
   TC - TEMPERATURE IN CELSIUS
  WCI - WIND CHILL INDEX
   HX - HEAT INDEX
  VSB - VISIBILITY
$$




USA.gov is the U.S. government's official web portal to all federal, state and local government web resources and services.